TimeCDT,TemperatureF,Dew PointF,Humidity,Sea Level PressureIn,VisibilityMPH,Wind Direction,Wind SpeedMPH,Gust SpeedMPH,PrecipitationIn,Events,Conditions,WindDirDegrees,DateUTC
12:14 AM,48.2,44.6,87,30.37,10.0,ESE,4.6,-,N/A,,Clear,110,2013-10-14 05:14:00
12:35 AM,48.2,44.6,87,30.36,10.0,ESE,4.6,-,N/A,,Clear,110,2013-10-14 05:35:00
12:55 AM,48.2,44.6,87,30.35,10.0,ESE,4.6,-,N/A,,Mostly Cloudy,110,2013-10-14 05:55:00
1:14 AM,48.2,44.6,87,30.36,10.0,Calm,Calm,-,N/A,,Scattered Clouds,0,2013-10-14 06:14:00
1:35 AM,48.2,46.4,93,30.37,10.0,NE,4.6,-,N/A,,Mostly Cloudy,50,2013-10-14 06:35:00
1:55 AM,48.2,46.4,93,30.36,10.0,ENE,4.6,-,N/A,,Overcast,60,2013-10-14 06:55:00
2:14 AM,48.2,46.4,93,30.36,10.0,East,5.8,-,N/A,,Mostly Cloudy,80,2013-10-14 07:14:00
2:35 AM,48.2,46.4,93,30.35,10.0,East,4.6,-,N/A,,Scattered Clouds,90,2013-10-14 07:35:00
2:55 AM,48.2,46.4,93,30.35,10.0,East,4.6,-,N/A,,Mostly Cloudy,90,2013-10-14 07:55:00
3:14 AM,48.2,44.6,87,30.34,10.0,East,5.8,-,N/A,,Mostly Cloudy,90,2013-10-14 08:14:00
3:35 AM,48.2,46.4,93,30.34,10.0,East,4.6,-,N/A,Rain,Light Rain,100,2013-10-14 08:35:00
3:54 AM,48.2,44.6,87,30.32,10.0,East,6.9,-,N/A,,Mostly Cloudy,80,2013-10-14 08:54:00
4:15 AM,48.2,44.6,87,30.32,10.0,East,6.9,-,N/A,,Overcast,90,2013-10-14 09:15:00
4:35 AM,48.2,44.6,87,30.32,10.0,ESE,5.8,-,N/A,,Overcast,110,2013-10-14 09:35:00
4:54 AM,48.2,42.8,82,30.30,10.0,ESE,5.8,-,N/A,,Overcast,110,2013-10-14 09:54:00
5:15 AM,48.2,41.0,76,30.30,10.0,ESE,8.1,-,N/A,,Overcast,110,2013-10-14 10:15:00
5:35 AM,48.2,41.0,76,30.29,10.0,East,8.1,-,N/A,,Overcast,100,2013-10-14 10:35:00
5:54 AM,50.0,39.2,66,30.29,10.0,ESE,8.1,-,N/A,,Overcast,120,2013-10-14 10:54:00
6:15 AM,50.0,39.2,66,30.27,10.0,ESE,10.4,-,N/A,,Overcast,110,2013-10-14 11:15:00
6:35 AM,51.8,39.2,62,30.27,10.0,ESE,10.4,-,N/A,,Overcast,110,2013-10-14 11:35:00
6:54 AM,50.0,39.2,66,30.27,10.0,ESE,8.1,-,N/A,,Overcast,110,2013-10-14 11:54:00
7:15 AM,50.0,39.2,66,30.26,10.0,ESE,6.9,-,N/A,,Overcast,120,2013-10-14 12:15:00
7:35 AM,50.0,39.2,66,30.26,10.0,ESE,9.2,-,N/A,,Overcast,120,2013-10-14 12:35:00
7:54 AM,50.0,39.2,66,30.26,10.0,ESE,8.1,-,N/A,,Overcast,120,2013-10-14 12:54:00
8:15 AM,50.0,39.2,66,30.27,10.0,ESE,5.8,-,N/A,,Overcast,120,2013-10-14 13:15:00
8:34 AM,51.8,39.2,62,30.27,10.0,SE,6.9,-,N/A,,Overcast,130,2013-10-14 13:34:00
8:55 AM,50.0,39.2,66,30.27,10.0,SE,8.1,-,N/A,,Overcast,130,2013-10-14 13:55:00
9:15 AM,50.0,39.2,66,30.27,10.0,SE,9.2,-,N/A,,Overcast,130,2013-10-14 14:15:00
9:34 AM,51.8,39.2,62,30.27,10.0,SE,8.1,-,N/A,,Scattered Clouds,130,2013-10-14 14:34:00
9:55 AM,51.8,39.2,62,30.27,10.0,SE,6.9,-,N/A,,Scattered Clouds,130,2013-10-14 14:55:00
10:34 AM,51.8,39.2,62,30.25,10.0,SE,13.8,20.7,N/A,Rain,Light Rain,130,2013-10-14 15:34:00
10:55 AM,51.8,42.8,71,30.26,10.0,SE,8.1,-,N/A,,Light Drizzle,140,2013-10-14 15:55:00
11:15 AM,48.2,44.6,87,30.26,10.0,SSE,6.9,-,N/A,Rain,Rain,150,2013-10-14 16:15:00
11:34 AM,48.2,44.6,87,30.25,10.0,SE,5.8,-,0.01,Rain,Light Rain,130,2013-10-14 16:34:00
11:55 AM,48.2,46.4,93,30.24,10.0,ESE,5.8,-,0.03,Rain,Rain,120,2013-10-14 16:55:00
12:15 PM,48.2,46.4,93,30.23,10.0,ESE,6.9,-,0.03,Rain,Rain,110,2013-10-14 17:15:00
12:34 PM,46.4,46.4,100,30.23,10.0,ESE,6.9,-,0.04,Rain,Light Rain,120,2013-10-14 17:34:00
12:55 PM,46.4,46.4,100,30.23,10.0,ESE,9.2,-,0.07,Rain,Light Rain,120,2013-10-14 17:55:00
1:14 PM,46.4,46.4,100,30.21,10.0,ESE,8.1,-,0.03,Rain,Light Rain,110,2013-10-14 18:14:00
1:35 PM,46.4,46.4,100,30.20,10.0,East,9.2,-,0.05,Rain,Light Rain,100,2013-10-14 18:35:00
1:55 PM,46.4,46.4,100,30.19,10.0,East,10.4,-,0.08,Rain,Rain,100,2013-10-14 18:55:00
2:14 PM,46.4,46.4,100,30.19,10.0,East,11.5,-,0.03,Rain,Rain,100,2013-10-14 19:14:00
2:35 PM,46.4,46.4,100,30.18,10.0,East,11.5,-,0.07,Rain,Rain,90,2013-10-14 19:35:00
2:55 PM,46.4,46.4,100,30.18,10.0,East,10.4,-,0.10,Rain,Light Rain,100,2013-10-14 19:55:00
3:14 PM,46.4,46.4,100,30.17,10.0,East,9.2,-,0.04,Rain,Rain,90,2013-10-14 20:14:00
3:35 PM,46.4,46.4,100,30.17,10.0,East,11.5,-,0.11,Rain,Rain,90,2013-10-14 20:35:00
3:55 PM,46.4,46.4,100,30.16,10.0,East,12.7,-,0.15,Rain,Light Rain,90,2013-10-14 20:55:00
4:14 PM,46.4,46.4,100,30.15,10.0,East,12.7,19.6,0.04,Rain,Light Rain,90,2013-10-14 21:14:00
4:35 PM,44.6,44.6,100,30.14,10.0,East,12.7,-,0.08,Rain,Rain,80,2013-10-14 21:35:00
4:55 PM,46.4,46.4,100,30.14,10.0,East,12.7,19.6,0.10,Rain,Light Rain,80,2013-10-14 21:55:00
5:14 PM,46.4,46.4,100,30.13,10.0,East,13.8,-,0.03,Rain,Light Rain,80,2013-10-14 22:14:00
5:35 PM,44.6,44.6,100,30.14,10.0,ENE,13.8,-,0.08,Rain,Rain,70,2013-10-14 22:35:00
5:55 PM,44.6,44.6,100,30.13,10.0,ENE,13.8,-,0.15,Rain,Rain,70,2013-10-14 22:55:00
6:15 PM,44.6,44.6,100,30.12,10.0,East,16.1,-,0.05,Rain,Light Rain,80,2013-10-14 23:15:00
6:35 PM,44.6,44.6,100,30.12,10.0,East,16.1,25.3,0.10,Rain,Heavy Rain,90,2013-10-14 23:35:00
6:54 PM,44.6,44.6,100,30.12,10.0,East,13.8,24.2,0.15,Rain,Rain,90,2013-10-14 23:54:00
7:15 PM,44.6,44.6,100,30.11,10.0,East,13.8,25.3,0.03,Rain,Light Rain,90,2013-10-15 00:15:00
7:35 PM,44.6,44.6,100,30.10,10.0,East,18.4,24.2,0.06,Rain,Light Rain,80,2013-10-15 00:35:00
7:54 PM,44.6,44.6,100,30.09,10.0,East,16.1,-,0.10,Rain,Rain,80,2013-10-15 00:54:00
8:15 PM,44.6,44.6,100,30.09,10.0,East,16.1,20.7,0.04,Rain,Rain,80,2013-10-15 01:15:00
8:35 PM,44.6,44.6,100,30.09,10.0,East,12.7,-,0.08,Rain,Rain,80,2013-10-15 01:35:00
8:54 PM,44.6,44.6,100,30.08,10.0,East,13.8,-,0.10,Rain,Rain,80,2013-10-15 01:54:00
9:15 PM,44.6,44.6,100,30.08,10.0,East,13.8,-,0.03,Rain,Light Rain,80,2013-10-15 02:15:00
9:35 PM,44.6,44.6,100,30.08,10.0,East,13.8,-,0.06,Rain,Light Rain,80,2013-10-15 02:35:00
9:54 PM,44.6,44.6,100,30.08,10.0,East,15.0,20.7,0.07,Rain,Light Rain,80,2013-10-15 02:54:00
10:15 PM,44.6,44.6,100,30.07,10.0,East,15.0,23.0,0.02,Rain,Light Rain,80,2013-10-15 03:15:00
10:34 PM,44.6,44.6,100,30.07,10.0,East,16.1,23.0,0.03,Rain,Light Rain,90,2013-10-15 03:34:00
10:55 PM,44.6,44.6,100,30.08,10.0,East,16.1,24.2,0.05,Rain,Light Rain,90,2013-10-15 03:55:00
11:15 PM,44.6,44.6,100,30.05,10.0,ENE,18.4,23.0,0.02,Rain,Light Rain,70,2013-10-15 04:15:00
11:34 PM,44.6,44.6,100,30.05,10.0,ENE,18.4,23.0,0.04,Rain,Light Rain,70,2013-10-15 04:34:00
11:55 PM,44.6,44.6,100,30.01,10.0,ENE,21.9,28.8,0.06,Rain,Rain,60,2013-10-15 04:55:00